[[{"header":{"parameterUnit":"m.s-1","parameterCategory":1,"la1":30.2991,"la2":30.254,"lo1":-89.0895,"lo2":-89.0444,"dy":0.0017,"dx":0.0017,"nx":28,"ny":28,"refTime":"2024-08-30T21:00:00:Z","depth":0,"parameterNumber":2,"parameterNumberName":"U-component_of_WINDS"},"data":[0,0,0,0,0,0,0,0,0,0,0,0,0,0,0,0,0,0,0,0,0,0,0,0,0,0,0,0,0,0,0,0,0,0,0,0,0,0,0,0,0,0,0,0,0,0,0,0,0,0,0,0,0,0,0,0,0,0,-4.6187,-4.6188,0,-4.627,-4.6271,-4.6272,-4.6263,-4.6262,-4.6261,-4.626,-4.6341,-4.6344,-4.6348,0,0,0,0,0,0,0,0,0,0,0,0,0,-4.6021,-4.6024,-4.6187,-4.6188,-4.6189,-4.627,-4.6271,-4.6272,-4.6264,-4.6262,-4.6261,-4.6259,-4.634,-4.6344,-4.6348,0,0,0,0,0,0,0,0,0,0,0,0,0,-4.6097,-4.6025,-4.6187,-4.6195,-4.6196,-4.6269,-4.6271,-4.6272,-4.6264,-4.6262,-4.626,-4.6258,-4.6339,-4.6344,-4.6349,-4.6418,0,0,-4.6364,-4.6366,0,0,0,0,0,0,0,0,-4.6093,-4.6103,-4.6193,-4.6195,-4.6196,-4.6255,-4.6242,-4.6321,-4.6265,-4.6238,-4.626,-4.6257,-4.6314,-4.6321,-4.634,-4.6422,-4.6425,-4.6365,-4.6368,-4.637,-4.6371,0,0,0,0,0,0,0,-4.6088,-4.61,-4.622,-4.6194,-4.6196,-4.6194,-4.6203,-4.6257,-4.6286,-4.624,-4.624,-4.625,-4.6314,-4.6335,-4.6342,-4.6427,-4.6364,-4.6369,-4.6372,-4.6374,-4.6571,-4.6573,0,0,0,0,0,0,-4.6081,-4.6095,-4.6217,-4.6222,-4.6139,-4.6199,-4.6208,-4.6238,-4.6285,-4.629,-4.6252,-4.6249,-4.6328,-4.6336,-4.6345,-4.6429,-4.637,-4.6374,-4.6377,-4.6569,-4.6571,-4.6574,0,0,0,0,0,0,-4.6077,-4.6092,-4.6214,-4.6159,-4.6174,-4.6203,-4.6237,-4.624,-4.6261,-4.6294,-4.6298,-4.6268,-4.6327,-4.6338,-4.64,-4.6432,-4.6377,-4.6381,-4.6566,-4.6569,-4.6572,-4.6598,0,0,0,0,0,0,-4.6073,-4.609,-4.6117,-4.616,-4.6177,-4.6268,-4.6239,-4.6243,-4.627,-4.6268,-4.631,-4.6315,-4.6326,-4.6393,-4.6405,-4.6438,-4.6385,-4.6563,-4.6567,-4.6571,-4.6595,-4.6602,-4.6608,0,0,0,0,0,-4.6067,-4.612,-4.6119,-4.6133,-4.6211,-4.627,-4.628,-4.6292,-4.6273,-4.63,-4.6321,-4.6314,-4.6427,-4.6399,-4.6413,-4.6448,-4.6561,-4.6566,-4.6571,-4.6591,-4.6601,-4.6608,0,0,0,0,0,0,-4.6079,-4.6126,-4.6124,-4.6194,-4.6228,-4.6268,-4.6302,-4.6301,-4.6341,-4.6337,-4.635,-4.6359,-4.6422,-4.6442,-4.641,-4.6518,-4.6492,-4.65,-4.6502,-4.6511,-4.6518,-4.651,-4.6389,0,0,0,0,0,-4.609,-4.6135,-4.6173,-4.623,-4.6248,-4.6273,-4.6298,-4.6305,-4.6341,-4.6355,-4.6381,-4.6415,-4.6458,-4.6486,-4.6528,-4.6599,-4.6608,-4.663,-4.6637,-4.6642,-4.6648,-4.6687,-4.6697,-4.659,-4.659,-4.659,0,0,-4.6112,-4.6144,-4.6171,-4.6234,-4.6261,-4.6306,-4.6285,-4.6333,-4.6366,-4.6362,-4.6422,-4.6443,-4.6483,-4.655,-4.658,-4.6568,-4.668,-4.6648,-4.6652,-4.6655,-4.6693,-4.6703,-4.6712,-4.6593,-4.6593,-4.6592,0,0,-4.6176,-4.6205,-4.6256,-4.6285,-4.6327,-4.6344,-4.6357,-4.6398,-4.6412,-4.6474,-4.6472,-4.6512,-4.6587,-4.6615,-4.6639,-4.6717,-4.6712,-4.6731,-4.6765,-4.6803,-4.6811,-4.6819,-4.6846,-4.6855,-4.6737,-4.6737,-4.6737,0,-4.6198,-4.6267,-4.6282,-4.6331,-4.6359,-4.636,-4.6411,-4.6438,-4.6492,-4.6511,-4.6497,-4.6592,-4.6618,-4.6692,-4.6712,-4.6732,-4.6746,-4.6724,-4.6809,-4.6817,-4.6824,-4.685,-4.686,-4.6739,-4.6739,-4.6739,-4.6739,0,-4.6291,-4.6339,-4.6375,-4.6428,-4.6461,-4.6511,-4.6533,-4.6564,-4.657,-4.6588,-4.6651,-4.6684,-4.6733,-4.6751,-4.6756,-4.6826,-4.6817,-4.6807,-4.6779,-4.6836,-4.686,-4.687,-4.6742,-4.6741,-4.6741,-4.674,0,0,-4.636,-4.6425,-4.6437,-4.6462,-4.6511,-4.6548,-4.6599,-4.6648,-4.6674,-4.6712,-4.6755,-4.682,-4.6811,-4.6838,-4.6847,-4.6881,-4.694,-4.6866,-4.6867,-4.6877,-4.7019,-4.7025,-4.7036,-4.6939,-4.6941,-4.6942,-4.7015,0,-4.6427,-4.6518,-4.6535,-4.6613,-4.6657,-4.6661,-4.6706,-4.674,-4.676,-4.68,-4.6822,-4.6867,-4.6852,-4.6869,-4.6903,-4.6925,-4.6968,-4.6921,-4.6977,-4.6978,-4.6964,-4.7049,-4.7054,-4.7121,-4.7025,-4.7026,-4.7027,0,-4.6516,-4.6559,-4.6642,-4.6686,-4.6706,-4.6745,-4.6792,-4.6831,-4.6872,-4.6883,-4.6916,-4.6922,-4.6975,-4.6949,-4.7022,-4.6989,-4.7014,-4.7029,-4.7032,-4.7035,-4.7004,-4.7052,-4.7143,-4.7152,-4.7043,-4.7042,-4.704,0,-4.6557,-4.6634,-4.6694,-4.6716,-4.677,-4.6797,-4.6821,-4.686,-4.6889,-4.6931,-4.6949,-4.6997,-4.7022,-4.7058,-4.7077,-4.7056,-4.7149,-4.7124,-4.7159,-4.7158,-4.7175,-4.7173,-4.7269,-4.7195,-4.7195,-4.7195,-4.7195,0,-4.6628,-4.6678,-4.6713,-4.675,-4.6807,-4.6827,-4.6882,-4.6906,-4.6941,-4.6982,-4.6989,-4.7027,-4.705,-4.7092,-4.7107,-4.7165,-4.7177,-4.7188,-4.719,-4.7185,-4.7184,-4.7199,-4.7194,-4.7198,-4.7197,-4.7197,-4.7196,0,-4.668,-4.6706,-4.6772,-4.6819,-4.6832,-4.6871,-4.6911,-4.6947,-4.6968,-4.702,-4.7034,-4.7066,-4.7116,-4.714,-4.7201,-4.7212,-4.7277,-4.7278,-4.7263,-4.7264,-4.7297,-4.7292,-4.7403,-4.7418,-4.7337,-4.7338,-4.7339,0,-4.6722,-4.6761,-4.6813,-4.6842,-4.6867,-4.6913,-4.6943,-4.6965,-4.6997,-4.7047,-4.7077,-4.7128,-4.7169,-4.7249,-4.7278,-4.7325,-4.7326,-4.7362,-4.7333,-4.7327,-4.7324,-4.732,-4.7324,-4.7366,-4.7366,-4.7367,-4.7368,0,-4.6794,-4.6805,-4.6849,-4.6898,-4.6935,-4.6974,-4.7013,-4.7036,-4.7065,-4.71,-4.7152,-4.7184,-4.7248,-4.7298,-4.7348,-4.7373,-4.7375,-4.7377,-4.7388,-4.7381,-4.737,-4.7375,-4.7275,-4.7374,-4.7373,-4.7372,-4.7372,-4.7372,-4.6841,-4.6876,-4.6919,-4.6968,-4.7,-4.7037,-4.7073,-4.71,-4.7144,-4.7198,-4.7209,-4.7264,-4.7305,-4.7373,-4.74,-4.7443,-4.7435,-4.745,-4.7453,-4.7456,-4.7457,-4.7366,-4.7453,-4.7453,-4.7452,-4.7452,-4.7452,0,-4.6911,-4.694,-4.6985,-4.704,-4.7079,-4.708,-4.7124,-4.7156,-4.7204,-4.7244,-4.7285,-4.7345,-4.7395,-4.7429,-4.748,-4.7508,-4.751,-4.752,-4.7517,-4.7522,-4.7462,-4.7447,-4.7517,-4.7517,-4.7517,-4.7517,-4.7517,-4.7517,-4.6952,-4.7011,-4.7028,-4.7104,-4.7133,-4.7187,-4.7212,-4.7246,-4.7277,-4.7345,-4.7386,-4.7409,-4.7447,-4.7501,-4.7546,-4.7555,-4.7572,-4.7582,-4.7591,-4.7533,-4.7526,-4.752,-4.7505,-4.7586,-4.7587,-4.7646,-4.7647,-4.7647]},{"header":{"parameterUnit":"m.s-1","parameterCategory":1,"la1":30.2991,"la2":30.254,"lo1":-89.0895,"lo2":-89.0444,"dy":0.0017,"dx":0.0017,"nx":28,"ny":28,"refTime":"2024-08-30T21:00:00:Z","depth":0,"parameterNumber":3,"parameterNumberName":"V-component_of_WINDS"},"data":[0,0,0,0,0,0,0,0,0,0,0,0,0,0,0,0,0,0,0,0,0,0,0,0,0,0,0,0,0,0,0,0,0,0,0,0,0,0,0,0,0,0,0,0,0,0,0,0,0,0,0,0,0,0,0,0,0,0,2.6924,2.6924,0,2.685,2.6849,2.6848,2.683,2.683,2.6831,2.6831,2.675,2.6748,2.6745,0,0,0,0,0,0,0,0,0,0,0,0,0,2.7046,2.7043,2.6924,2.6924,2.6923,2.685,2.6849,2.6848,2.683,2.683,2.6831,2.6832,2.6751,2.6748,2.6745,0,0,0,0,0,0,0,0,0,0,0,0,0,2.6984,2.7043,2.6925,2.6905,2.6902,2.6851,2.6849,2.6848,2.683,2.6831,2.6831,2.6832,2.6752,2.6749,2.6745,2.6706,0,0,2.6733,2.6731,0,0,0,0,0,0,0,0,2.6988,2.698,2.6909,2.6906,2.6903,2.685,2.6862,2.68,2.683,2.6857,2.6831,2.6832,2.6783,2.6776,2.6761,2.6702,2.6698,2.6732,2.673,2.6728,2.6727,0,0,0,0,0,0,0,2.6992,2.6983,2.6895,2.6908,2.6904,2.6898,2.689,2.685,2.6816,2.6855,2.6853,2.6845,2.6781,2.6764,2.6759,2.6697,2.6732,2.6729,2.6727,2.6725,2.6602,2.6601,0,0,0,0,0,0,2.7,2.6987,2.6897,2.6893,2.6948,2.6895,2.6887,2.6866,2.6817,2.681,2.6845,2.6844,2.6771,2.6763,2.6756,2.6706,2.6728,2.6725,2.6722,2.6603,2.6602,2.6601,0,0,0,0,0,0,2.7003,2.6993,2.69,2.6939,2.6927,2.6893,2.687,2.6865,2.6848,2.6809,2.6803,2.6834,2.6771,2.6761,2.6718,2.6703,2.6723,2.6719,2.6604,2.6603,2.6601,2.6607,0,0,0,0,0,0,2.7007,2.6994,2.698,2.6939,2.6925,2.6866,2.6869,2.6863,2.6842,2.6841,2.6797,2.6791,2.6771,2.6724,2.6715,2.6698,2.6716,2.6605,2.6603,2.6602,2.6608,2.6606,2.6605,0,0,0,0,0,2.7011,2.6983,2.6979,2.6968,2.6907,2.6865,2.6857,2.6836,2.684,2.6825,2.68,2.6792,2.6707,2.672,2.6709,2.6691,2.6606,2.6604,2.6602,2.6609,2.6607,2.6605,0,0,0,0,0,0,2.7021,2.6978,2.6972,2.6931,2.6902,2.6862,2.6842,2.6834,2.6801,2.6802,2.6776,2.6766,2.6725,2.6704,2.6719,2.665,2.6656,2.6652,2.6666,2.6663,2.6661,2.6666,2.6713,0,0,0,0,0,2.7019,2.699,2.6953,2.692,2.6906,2.6877,2.6857,2.6844,2.6812,2.6799,2.6771,2.6739,2.6705,2.6683,2.6649,2.6606,2.6595,2.6588,2.6586,2.6585,2.658,2.6555,2.6551,2.6594,2.6594,2.6594,0,0,2.7013,2.6986,2.6969,2.6921,2.6897,2.6866,2.6866,2.6833,2.681,2.6793,2.6752,2.673,2.6693,2.6649,2.6628,2.663,2.6566,2.6582,2.6581,2.6578,2.6552,2.6548,2.6545,2.6593,2.6593,2.6593,0,0,2.6986,2.6964,2.6933,2.691,2.6874,2.6855,2.6848,2.6809,2.6794,2.6753,2.674,2.671,2.6653,2.6626,2.6605,2.657,2.656,2.6559,2.6549,2.6524,2.6521,2.6518,2.6504,2.6499,2.6556,2.6556,2.6556,0,2.6983,2.6938,2.6918,2.6887,2.6865,2.6852,2.682,2.6797,2.6751,2.6736,2.674,2.6667,2.6641,2.659,2.6582,2.6566,2.6555,2.6563,2.6523,2.652,2.6517,2.6503,2.6498,2.6556,2.6556,2.6556,2.6556,0,2.6935,2.6904,2.6883,2.6842,2.6818,2.6786,2.6761,2.6739,2.6728,2.6708,2.6665,2.6634,2.6593,2.6581,2.6568,2.6528,2.653,2.6529,2.6534,2.6513,2.65,2.6494,2.6556,2.6556,2.6556,2.6556,0,0,2.6911,2.6861,2.6853,2.6834,2.6794,2.6768,2.6735,2.6698,2.6679,2.6648,2.6619,2.6571,2.6569,2.6546,2.6531,2.6509,2.6482,2.651,2.6509,2.6505,2.6434,2.6435,2.6429,2.6476,2.6475,2.6474,2.6437,0,2.6879,2.6822,2.6804,2.6755,2.6725,2.6712,2.6683,2.6655,2.6635,2.6606,2.6584,2.655,2.6551,2.6536,2.6515,2.649,2.6467,2.6492,2.6447,2.6445,2.6456,2.6422,2.6423,2.6389,2.6432,2.6431,2.643,0,2.6834,2.6804,2.6753,2.6717,2.6703,2.6678,2.6642,2.6614,2.6581,2.6569,2.6543,2.653,2.6493,2.6502,2.6451,2.6468,2.6449,2.6434,2.6432,2.6426,2.6436,2.6414,2.6378,2.6372,2.6422,2.6423,2.6423,0,2.6821,2.6767,2.673,2.6714,2.6671,2.6653,2.6634,2.6602,2.6581,2.6548,2.6534,2.6498,2.6477,2.6449,2.6426,2.6434,2.6376,2.6383,2.6363,2.6364,2.635,2.6351,2.6309,2.634,2.634,2.634,2.634,0,2.6786,2.6755,2.6724,2.67,2.6665,2.6644,2.6609,2.6589,2.656,2.6532,2.6518,2.6491,2.6463,2.6432,2.6414,2.6373,2.6364,2.6352,2.6347,2.6352,2.6354,2.6338,2.6339,2.6339,2.6339,2.6339,2.634,0,2.6764,2.6742,2.67,2.6664,2.6654,2.6629,2.6597,2.6573,2.6554,2.6518,2.6508,2.6477,2.644,2.6414,2.6366,2.6354,2.631,2.6306,2.6322,2.6319,2.63,2.6302,2.6246,2.6237,2.6275,2.6275,2.6274,0,2.6743,2.6719,2.668,2.6661,2.6642,2.6611,2.659,2.6568,2.6546,2.6506,2.6487,2.6449,2.6418,2.6359,2.6331,2.6294,2.6289,2.6271,2.6283,2.6289,2.6287,2.6288,2.6285,2.6269,2.6269,2.6269,2.6268,0,2.6707,2.6697,2.6668,2.6634,2.6609,2.6581,2.6553,2.6537,2.651,2.6486,2.6449,2.6425,2.6377,2.6339,2.6299,2.6278,2.6268,2.6265,2.6259,2.6263,2.6272,2.6266,2.6315,2.6266,2.6267,2.6267,2.6267,2.6267,2.6684,2.6662,2.6631,2.6598,2.6575,2.6549,2.6525,2.6503,2.6473,2.6433,2.6421,2.6382,2.6349,2.6296,2.6274,2.6242,2.6243,2.6234,2.6231,2.6228,2.6228,2.6279,2.6235,2.6235,2.6235,2.6235,2.6235,0,2.6646,2.6626,2.6596,2.6558,2.6532,2.6527,2.6496,2.6473,2.644,2.6411,2.6381,2.6338,2.6301,2.6271,2.6233,2.6213,2.6207,2.6204,2.6204,2.6199,2.6229,2.6239,2.6209,2.6209,2.6209,2.6209,2.6209,2.6209,2.6623,2.6585,2.6572,2.6523,2.6502,2.6465,2.6448,2.6423,2.64,2.6353,2.6323,2.6304,2.6274,2.6234,2.62,2.6192,2.6178,2.6175,2.6165,2.6194,2.6197,2.62,2.6208,2.6172,2.6172,2.6137,2.6137,2.6137]}]]